Weather History for San Luis Potosi, Mexico

Change the Weather History Date:

Monday, October 29, 2012

  Actual Average Record
Temperature  
Mean Temperature 62 °F -  
Max Temperature 73 °F 71 °F 78 °F (1996)
Min Temperature 50 °F 43 °F 33 °F (2007)
Degree Days  
Heating Degree Days 4    
Growing Degree Days 12 (Base 50)    
Moisture  
Dew Point 50 °F    
Average Humidity 76    
Maximum Humidity 100    
Minimum Humidity 31    
Precipitation  
Precipitation 0.00 in - - ()
Sea Level Pressure  
Sea Level Pressure 30.16 in    
Wind  
Wind Speed 4 mph ()    
Max Wind Speed 21 mph    
Max Gust Speed -    
Visibility 9.6 miles    
Events      
Averages and records for this station are not official NWS values.
T = Trace of Precipitation, MM = Missing Value Source: Averaged Metar Reports

Daily Weather History Graph

Daily Weather History Graph

Search for Another Location

Airport:

Trip Planner

Search our weather history database for the weather conditions in past years. The results will help you decide how hot, cold, wet, or windy it might be!

Date:

Astronomy

Oct. 29, 2012 Rise Set
Actual Time 6:46 AM CST 6:07 PM CST
Civil Twilight 6:23 AM CST 6:30 PM CST
Nautical Twilight 5:57 AM CST 6:57 PM CST
Astronomical Twilight 5:30 AM CST 7:23 PM CST
Moon 6:06 PM CST (10/29) 6:35 AM CST (10/29)
Length of Visible Light 12h 07m
Length of Day
11h 21m
Full, 100% of the Moon is Illuminated
Oct 29
Full
Oct 29
Full
Nov 6
Last Quarter
Nov 13
New
Nov 20
First Quarter

Hourly Weather History & Observations

Time (CST) Temp. Dew Point Humidity Pressure Visibility Wind Dir Wind Speed Gust Speed Precip Events Conditions
12:42 AM 50.0 °F 50.0 °F 100% 30.30 in 6.0 mi Calm Calm - N/A   Clear
1:40 AM 50.0 °F 50.0 °F 100% 30.28 in 6.0 mi Calm Calm - N/A   Mostly Cloudy
2:42 AM 50.0 °F 50.0 °F 100% 29.94 in 6.0 mi Calm Calm - N/A   Mostly Cloudy
3:40 AM 50.0 °F 50.0 °F 100% 30.30 in 6.0 mi East 9.2 mph - N/A   Mostly Cloudy
5:02 AM 50.0 °F 50.0 °F 100% 30.28 in 6.0 mi East 6.9 mph - N/A   Mostly Cloudy
5:42 AM 50.0 °F 50.0 °F 100% 29.96 in 6.0 mi Calm Calm - N/A   Overcast
5:45 AM 53 °F 53 °F 99% 30.08 in 3 mi Calm Calm - -   Haze
6:41 AM 51.8 °F 51.8 °F 100% 30.30 in 6.0 mi Calm Calm - N/A   Overcast
7:40 AM 53.6 °F 51.8 °F 94% 30.31 in 6.0 mi Calm Calm - N/A   Overcast
7:52 AM 53.6 °F 51.8 °F 94% 30.33 in 6.0 mi Calm Calm - N/A   Overcast
8:40 AM 53.6 °F 51.8 °F 94% 30.04 in 6.0 mi Calm Calm - N/A   Overcast
8:50 AM 54 °F 51 °F 85% 30.20 in 6 mi East 4.5 mph - -   Haze
10:02 AM 55.4 °F 51.8 °F 88% 30.36 in 10.0 mi Calm Calm - N/A   Overcast
10:40 AM 57.2 °F 50.0 °F 77% 30.34 in 12.0 mi Calm Calm - N/A   Overcast
11:44 AM 62.6 °F 51.8 °F 68% 30.09 in 15.0 mi NE 5.8 mph - N/A   Scattered Clouds
11:45 AM 61 °F 53 °F 66% 30.19 in 6 mi North 2.2 mph - -   Haze
12:41 PM 64.4 °F 50.0 °F 59% 30.30 in 15.0 mi East 5.8 mph - N/A   Scattered Clouds
1:47 PM 66.2 °F 51.8 °F 60% 30.27 in 15.0 mi NE 11.5 mph - N/A   Scattered Clouds
2:52 PM 69.8 °F 46.4 °F 43% 29.88 in 15.0 mi NE 11.5 mph - N/A   Partly Cloudy
2:55 PM 70 °F 46 °F 31% 30.02 in 12 mi North 4.5 mph - -  
3:43 PM 69.8 °F 50.0 °F 49% 30.21 in 15.0 mi NE 13.8 mph - N/A   Clear
4:45 PM 71.6 °F 44.6 °F 38% 30.21 in 15.0 mi ENE 20.7 mph - N/A   Partly Cloudy
5:45 PM 63 °F 57 °F 74% 29.94 in 11 mi ENE 4.5 mph - -   Haze
5:51 PM 66.2 °F 46.4 °F 49% 29.94 in 15.0 mi NNE 11.5 mph - N/A   Clear
6:40 PM 62.6 °F 44.6 °F 52% 30.23 in 12.0 mi East 9.2 mph - N/A   Clear
7:45 PM 59.0 °F 46.4 °F 63% 30.26 in 12.0 mi South 11.5 mph - N/A   Clear
8:45 PM 59.0 °F 46.4 °F 63% 29.97 in 12.0 mi East 11.5 mph - N/A   Scattered Clouds
8:50 PM 59 °F 53 °F 74% 29.93 in 5 mi East 4.5 mph - -  
9:44 PM 59.0 °F 48.2 °F 67% 30.30 in 12.0 mi ESE 9.2 mph - N/A   Partly Cloudy
10:43 PM 55.4 °F 50.0 °F 82% 30.32 in 12.0 mi NNE 4.6 mph - N/A   Partly Cloudy
11:46 PM 53.6 °F 50.0 °F 88% 30.01 in 12.0 mi NNE 4.6 mph - N/A   Scattered Clouds
11:50 PM 56 °F 48 °F 67% 29.94 in 5 mi East 2.2 mph - -